Regional Weather Roundup
Issued by NWS Upton, NY

Current Version | Previous Version | Text Only | Print | Product List | Glossary On
Versions: 1 2 3 4 5 6 7 8 9 10 11 12 13 14 15 16 17 18 19 20 21 22 23 24 25 26 27
000 ASUS41 KOKX 220108 RWROKX REGIONAL WEATHER ROUNDUP NATIONAL WEATHER SERVICE NEW YORK NY 900 PM EDT MON AUG 21 2017 NOTE: "FAIR" INDICATES FEW OR NO CLOUDS BELOW 12,000 FEET WITH NO SIGNIFICANT WEATHER AND/OR OBSTRUCTIONS TO VISIBILITY. NYZ071-072-176-178-NJZ106-104-220200- NEW YORK CITY METRO AREA CITY SKY/WX TMP DP RH WIND PRES REMARKS Central Park CLEAR 80 68 66 VRB7 30.14R Bronx Bot Gard N/A 81 66 61 S10 30.11F LaGuardia APRT MOCLDY 81 71 71 S9 30.10S Kennedy INTL MOCLDY 78 73 84 S14 30.12R Breezy Point N/A 73 N/A N/A S8 N/A Newark/Liberty MOCLDY 80 69 69 SW14 30.11R Teterboro CLEAR 81 69 67 SW9 30.10R $$ NYZ177-179-078>081-220200- LONG ISLAND NEW YORK CITY SKY/WX TMP DP RH WIND PRES REMARKS Jones Beach N/A 75 N/A N/A SW6G12 N/A Matinecock PT N/A 77 N/A N/A SW12 N/A Farmingdale CLEAR 76 71 85 SW13 30.13R MacArthur/ISP PTCLDY 76 71 85 SW10 30.12S Shirley CLEAR 77 72 84 SW9 30.13S Mt Sinai Harb N/A N/A N/A N/A S8G14 N/A Westhampton CLEAR 74 68 81 SW8 30.14S East Hampton FAIR 72 69 90 S6 30.12S Montauk N/A 74 70 87 VRB6 30.13S $$ NYZ052-065-067-220200- HUDSON VALLEY CITY SKY/WX TMP DP RH WIND PRES REMARKS White Plains CLEAR 76 68 76 S5 30.11S Larchmont Harb N/A 77 N/A N/A S16 N/A Croton On Huds N/A 81 N/A N/A S3 N/A Newburgh PTCLDY 79 72 78 SW6 30.11S Montgomery CLEAR 76 70 82 SW5 30.09S Poughkeepsie MOCLDY 75 68 78 SE3 30.08R Albany PTCLDY 78 67 68 S7 30.06R $$ NJZ001-105-106-008-010-013-015-019>022-104-220200- NEW JERSEY CITY SKY/WX TMP DP RH WIND PRES REMARKS Newark/Liberty MOCLDY 80 69 69 SW14 30.11R Teterboro CLEAR 81 69 67 SW9 30.10R Caldwell CLEAR 79 71 76 VRB3 30.11R Somerville CLEAR 74 71 91 CALM 30.11R Linden FAIR 80 68 66 CALM 30.12R Perth Amboy N/A 79 N/A N/A S9 N/A Sussex CLEAR 74 72 93 CALM 30.12R Andover N/A 73 71 93 S3 30.13R Trenton PTCLDY 78 71 79 S5 30.13R Millville CLOUDY 78 76 93 CALM 30.14R Atlantic City PTCLDY 77 72 84 S7 30.14R Wrightstown PTCLDY 74 71 88 S3 30.11R Toms River CLEAR 74 69 85 S6 30.14S Belmar NOT AVBL $$ PAZ047>061-062-071-220200- EASTERN PENNSYLVANIA CITY SKY/WX TMP DP RH WIND PRES REMARKS Philadelphia MOCLDY 80 72 76 S7 30.13R Allentown CLOUDY 78 72 81 NW3 30.13R Scranton CLEAR 71 68 90 CALM 30.13R $$ CTZ002-004>006-009-010-012-RIZ004-006-007-MAZ004-011-015-220200- SOUTHERN NEW ENGLAND IN CT CITY SKY/WX TMP DP RH WIND PRES REMARKS Bradley INTL PTCLDY 78 65 63 S9 30.09R Hartford CLEAR 77 64 64 S7 30.09R Danbury PTCLDY 76 67 73 S6 30.13R Wtrbury/Oxford CLOUDY 73 65 75 SW6 30.14R Norwalk Harbor N/A 75 N/A N/A SW7 N/A Bridgeport PTCLDY 77 69 76 SW7 30.11R Meriden CLEAR 73 65 75 S3 30.10R New Haven CLEAR 76 68 76 SW5 30.11S Chester FAIR 73 66 78 CALM 30.13S Groton CLEAR 73 65 75 SW7 30.11R Wilimantic CLEAR 75 64 68 S6 30.12R IN RI CITY SKY/WX TMP DP RH WIND PRES REMARKS Providence PTCLDY 75 63 66 SW7 30.11R Block Island CLEAR 71 68 90 SW14 30.13R Westerly CLEAR 75 65 70 SW7 30.13R IN MA CITY SKY/WX TMP DP RH WIND PRES REMARKS Boston CLEAR 80 63 55 SW12 30.07R Worcester CLEAR 69 60 73 SW7 30.13R Westfield CLEAR 74 67 78 S7 30.09R Provincetown CLEAR 72 68 87 SW8 30.09R Nantucket CLEAR 69 67 93 W10 30.12S $$ ANZ330-335-338-340-345-350-353-355-220200- COASTAL MARINE OBSERVATIONS STATION/POSITION TIME SKY/WX TEMP WIND PRES VSBY WAVE AIR SEA DIR/SP/G HT/PER (UTC) (F) (DEG/KT/KT) (MB) (MI) (FT/S) NY HARB ENTRANCE 2350 76 76 190/ 17/ 21 1018.9 3/ 4 GREAT SOUTH BAY 0030 77 79 220/ 16/ 19 N/A 23 SSW MONTAUK P 2350 74 73 1020.1 2/ 8 15 E BARNEGAT LI 0030 77 N/A 3/ 4 HUDSON CANYON 2350 76 76 220/ 10/ 12 1020.2 2/ 8 KINGS POINT 0030 78 74 220/ 12/ 15 1019.3 EXECUTION ROCKS NOT AVBL WESTERN LI SOUND NOT AVBL CENTRAL LI SOUND NOT AVBL EASTERN LI SOUND NOT AVBL ROBBINS REEF 0024 190/ 10/ 12 1020.1 $$ >>>>>>>>>>>>>>>>>>>>>>>>>>>> KEY <<<<<<<<<<<<<<<<<<<<<<<<<<< > < > SKY/WX - Sky Condition/Present Weather < > TMP - Temperature in Fahrenheit < > DP - Dew Point in Fahrenheit < > RH - Relative Humidity in Percent < > WIND - Direction (from) and Speed in MPH < > PRES - Mean Sea Level Pressure (inches of Hg) < > WCI - Wind Chill Index < > VSB - VISIBILITY IN MILES < > HX - HEAT INDEX < > TC - TEMPERATURE IN CELSIUS < > VRB - VARIABLE WIND DIRECTION < > < >>>>>>>>>>>>>>>>>>>>>>>>>>>> KEY <<<<<<<<<<<<<<<<<<<<<<<<<<<

USA.gov is the U.S. government's official web portal to all federal, state and local government web resources and services.